Temp
10 10 10 10 10 10 10 10 10 10 9 9 9 9 9 9 9 9 9 9 9 9 9 9 9 9 9 9 9 9 9 9 9 9 9 9 10 10 10 9 9 9
9 9 10 10 10 10 10 10 10 10 10 9 9 9 9 9 9 9 9 9 9 9 9 9 9 9 9 9 9 9 9 9 9 9 9 9 9 10 10 9 9 9
9 9 9 10 10 10 9 9 10 10 10 9 9 9 9 9 9 9 9 9 9 9 9 9 9 9 9 9 9 9 9 9 9 9 9 9 9 9 9 9 9 9
10 9 9 9 9 10 10 9 10 10 10 10 9 9 9 9 9 9 9 9 9 9 9 9 9 9 9 9 9 9 9 9 9 9 9 9 9 9 9 9 9 9
10 10 10 9 9 10 10 10 10 10 10 10 9 9 10 10 10 9 9 9 9 9 9 9 9 9 9 9 9 9 9 9 9 9 9 9 9 9 9 9 9 9
10 10 10 10 9 9 10 10 10 10 10 10 9 9 10 10 9 9 9 9 9 9 9 9 9 9 9 9 9 9 9 9 9 9 9 9 9 9 9 9 9 9
10 10 10 10 10 10 10 10 10 10 10 9 9 9 9 9 9 9 9 9 9 9 9 9 9 9 9 9 9 9 9 9 9 10 10 9 9 10 10 10 10 10
10 10 10 10 10 10 10 10 10 10 10 9 9 9 9 9 9 9 9 9 9 9 9 9 9 9 9 9 9 9 9 9 9 10 10 9 9 10 10 10 10 10
10 10 10 10 10 10 10 10 10 9 9 9 9 9 9 9 9 9 9 9 9 9 9 9 9 9 9 9 9 9 9 9 9 9 10 9 9 9 9 10 10 10
10 10 10 10 10 10 10 10 10 9 9 9 9 9 9 9 9 9 9 9 9 9 9 9 9 9 9 9 9 9 9 9 9 9 9 9 9 9 9 10 10 10
9 9 10 10 10 10 10 10 10 10 9 9 9 9 9 9 9 9 9 9 9 9 9 9 9 9 9 9 9 9 9 9 9 9 9 9 10 10 10 10 10 10
9 9 9 9 9 10 10 10 10 10 10 9 9 9 9 9 9 9 9 9 9 9 9 9 9 9 9 9 9 9 9 9 9 9 9 9 9 10 10 10 10 10
9 9 9 9 9 9 9 9 10 10 10 9 9 9 9 9 9 9 9 9 9 9 9 9 9 9 9 9 9 9 9 9 9 9 9 9 9 9 9 10 10 10
9 9 9 9 9 9 9 9 9 9 10 9 9 9 9 9 9 9 9 9 9 9 9 9 9 9 9 9 10 9 9 9 9 9 9 9 9 9 9 9 9 10
9 9 9 9 9 9 9 9 9 9 9 9 9 9 9 9 9 9 9 9 9 9 9 9 9 10 10 10 10 10 9 9 9 9 9 9 9 9 9 9 9 10
9 9 9 9 9 9 10 9 9 9 9 9 9 9 9 9 9 9 9 9 9 9 9 9 9 9 9 9 9 9 9 10 9 9 9 9 9 9 9 9 9 9
9 9 9 9 9 9 9 10 10 9 9 9 9 9 9 9 9 9 9 9 9 9 9 9 9 9 9 9 9 9 9 9 10 9 9 9 9 9 9 9 9 9
9 9 9 9 9 9 9 9 10 10 9 9 9 9 10 9 9 9 9 9 9 9 9 9 9 9 9 9 9 9 9 9 9 9 10 9 9 9 9 9 9 9
9 9 9 9 9 9 9 9 9 10 10 9 9 9 9 9 9 9 9 9 9 9 9 9 9 9 9 9 9 9 9 9 9 9 9 9 9 9 9 9 9 9
9 9 9 9 9 9 9 9 9 9 10 9 9 9 9 9 9 9 9 9 9 9 9 9 9 9 9 9 9 9 9 9 9 9 9 9 9 9 9 9 9 9
9 9 9 9 9 9 9 8 8 9 9 9 9 8 8 8 8 9 9 9 9 9 9 9 9 9 9 9 9 9 9 9 9 9 9 9 9 9 9 9 9 9
9 9 9 9 9 9 8 8 8 9 9 8 8 8 8 8 8 8 8 9 8 8 9 9 9 9 9 9 9 9 9 9 9 9 9 9 9 9 9 9 9 9
9 9 9 9 9 9 8 8 8 9 9 9 9 8 8 8 8 8 8 8 8 8 8 8 8 9 9 9 9 9 9 9 9 9 9 9 9 9 9 9 9 9
9 9 9 8 8 8 8 8 8 8 8 8 8 8 8 8 8 8 8 8 8 8 8 8 8 8 8 8 8 8 9 9 9 9 9 9 9 9 9 9 9 9
8 8 8 8 8 7 8 8 8 8 8 8 8 8 8 8 8 8 8 8 8 8 8 8 8 8 8 8 8 8 9 9 9 9 9 9 9 9 9 9 9 9
8 8 8 8 7 7 7 7 7 8 8 8 8 8 8 8 8 8 8 8 8 8 8 8 8 8 8 9 9 9 9 9 8 8 9 9 9 9 9 9 9 9
Height
3223 3224 3225 3226 3227 3227 3228 3229 3230 3231 3232 3233 3235 3236 3237 3237 3238 3239 3239 3240 3240 3241 3242 3242 3243 3244 3244 3245 3246 3246 3247 3247 3248 3248 3248 3249 3249 3250 3250 3250 3251 3251
3222 3223 3224 3225 3226 3227 3228 3228 3229 3230 3231 3232 3233 3234 3235 3236 3237 3237 3238 3239 3239 3240 3241 3241 3242 3243 3243 3244 3245 3245 3246 3246 3246 3247 3247 3248 3248 3249 3249 3249 3249 3250
3221 3222 3223 3224 3225 3226 3227 3228 3228 3229 3230 3231 3232 3232 3233 3234 3235 3236 3237 3238 3238 3239 3240 3240 3241 3241 3242 3243 3243 3244 3245 3245 3245 3246 3246 3247 3247 3247 3248 3248 3248 3248
3220 3221 3222 3223 3224 3225 3226 3227 3228 3228 3229 3230 3231 3231 3232 3233 3234 3235 3235 3236 3237 3238 3239 3239 3240 3240 3241 3241 3242 3242 3243 3243 3244 3244 3245 3245 3246 3246 3246 3247 3247 3247
3219 3220 3221 3222 3223 3224 3224 3225 3227 3228 3228 3229 3230 3230 3231 3232 3232 3233 3234 3235 3236 3236 3237 3238 3238 3239 3239 3240 3241 3241 3241 3242 3242 3243 3243 3244 3244 3244 3245 3245 3246 3246
3217 3218 3220 3221 3221 3222 3223 3224 3225 3226 3227 3228 3229 3229 3230 3230 3231 3232 3233 3233 3234 3235 3235 3236 3237 3237 3238 3238 3239 3240 3240 3240 3241 3241 3242 3242 3242 3243 3243 3244 3244 3244
3215 3216 3218 3219 3220 3221 3222 3223 3224 3225 3226 3227 3227 3228 3229 3229 3230 3230 3231 3232 3232 3233 3234 3234 3235 3236 3236 3237 3237 3238 3238 3239 3239 3240 3240 3240 3241 3241 3241 3242 3242 3242
3213 3214 3216 3217 3218 3219 3220 3221 3222 3223 3224 3225 3226 3227 3228 3228 3229 3229 3229 3230 3230 3231 3232 3232 3233 3234 3234 3235 3236 3236 3237 3237 3237 3238 3238 3239 3239 3239 3239 3240 3240 3240
3211 3212 3213 3214 3216 3217 3218 3219 3220 3221 3222 3223 3224 3225 3226 3227 3227 3228 3228 3228 3229 3229 3230 3230 3231 3232 3232 3233 3234 3235 3235 3235 3235 3236 3236 3237 3237 3237 3237 3238 3238 3239
3209 3210 3211 3212 3214 3215 3216 3217 3218 3219 3220 3221 3222 3223 3224 3225 3226 3226 3226 3227 3227 3228 3228 3229 3229 3230 3230 3231 3232 3232 3233 3233 3233 3234 3234 3235 3235 3235 3236 3236 3236 3237
3206 3207 3209 3210 3212 3213 3214 3215 3216 3217 3218 3219 3220 3221 3222 3223 3224 3224 3225 3226 3226 3227 3227 3227 3228 3228 3228 3229 3230 3230 3231 3231 3231 3232 3233 3233 3233 3233 3234 3234 3234 3235
3202 3204 3206 3208 3209 3211 3212 3213 3214 3215 3216 3217 3218 3219 3220 3221 3221 3222 3223 3224 3225 3225 3225 3226 3226 3226 3226 3227 3227 3228 3228 3229 3229 3230 3231 3231 3231 3232 3232 3232 3233 3233
3200 3201 3202 3204 3206 3208 3209 3210 3211 3212 3214 3215 3215 3216 3217 3218 3219 3220 3221 3222 3222 3223 3224 3224 3224 3225 3225 3225 3226 3226 3227 3227 3228 3228 3229 3229 3230 3230 3230 3230 3231 3231
3199 3199 3200 3201 3202 3204 3206 3207 3208 3209 3210 3212 3213 3214 3215 3216 3217 3218 3218 3219 3220 3220 3221 3222 3222 3222 3223 3224 3224 3225 3225 3225 3226 3226 3227 3227 3227 3228 3228 3228 3228 3229
3195 3196 3197 3198 3200 3201 3202 3203 3205 3206 3207 3208 3209 3211 3212 3213 3214 3215 3216 3216 3217 3218 3218 3219 3219 3220 3221 3222 3222 3223 3223 3223 3224 3224 3224 3225 3225 3225 3226 3226 3226 3227
3191 3193 3193 3195 3197 3198 3199 3200 3201 3202 3203 3205 3206 3208 3209 3210 3211 3212 3213 3214 3214 3215 3216 3216 3217 3218 3219 3219 3220 3220 3220 3221 3221 3222 3222 3222 3222 3223 3223 3223 3224 3224
3185 3187 3188 3190 3192 3194 3195 3196 3197 3198 3199 3201 3203 3205 3206 3207 3208 3209 3210 3211 3212 3213 3213 3214 3215 3215 3216 3216 3217 3217 3218 3218 3219 3219 3219 3220 3220 3220 3221 3221 3221 3221
3181 3183 3184 3184 3185 3187 3190 3193 3194 3194 3195 3197 3199 3201 3203 3205 3206 3208 3209 3210 3210 3211 3211 3212 3213 3213 3214 3214 3214 3215 3215 3215 3216 3216 3216 3217 3217 3217 3218 3218 3218 3218
3179 3181 3182 3181 3179 3180 3184 3188 3191 3192 3192 3193 3195 3197 3200 3202 3203 3205 3206 3207 3208 3209 3210 3210 3211 3211 3212 3212 3212 3212 3212 3213 3213 3213 3213 3213 3214 3214 3215 3215 3215 3215
3174 3174 3176 3177 3178 3180 3181 3183 3186 3189 3190 3190 3191 3193 3195 3198 3200 3201 3203 3204 3205 3206 3207 3208 3208 3208 3208 3209 3209 3210 3210 3210 3210 3210 3210 3210 3211 3212 3212 3212 3212 3212
3168 3169 3169 3172 3176 3179 3179 3179 3181 3184 3187 3188 3188 3189 3191 3193 3195 3197 3199 3200 3200 3201 3202 3203 3204 3204 3205 3205 3205 3206 3206 3206 3206 3206 3206 3207 3208 3209 3209 3209 3209 3209
3163 3164 3165 3167 3171 3174 3176 3177 3177 3178 3181 3184 3184 3185 3187 3188 3189 3191 3193 3195 3196 3197 3198 3199 3200 3202 3202 3201 3201 3201 3202 3203 3203 3203 3203 3204 3205 3205 3206 3206 3206 3206
3158 3159 3160 3163 3166 3168 3171 3173 3173 3174 3176 3179 3179 3181 3184 3186 3185 3185 3187 3189 3190 3192 3194 3196 3197 3198 3198 3198 3197 3197 3198 3199 3199 3200 3200 3201 3201 3202 3202 3203 3203 3203
3154 3155 3156 3158 3161 3164 3167 3169 3170 3171 3173 3174 3175 3177 3180 3182 3183 3183 3183 3184 3185 3187 3189 3190 3191 3193 3194 3195 3194 3193 3193 3194 3196 3196 3197 3197 3198 3198 3199 3199 3199 3200
3152 3153 3154 3155 3157 3160 3163 3165 3167 3168 3170 3171 3173 3175 3177 3179 3180 3180 3181 3182 3183 3184 3184 3184 3185 3188 3190 3191 3192 3190 3189 3189 3191 3193 3193 3194 3194 3194 3195 3195 3195 3196
3152 3152 3153 3154 3156 3157 3159 3161 3163 3165 3167 3169 3170 3172 3174 3176 3177 3178 3178 3179 3180 3182 3182 3181 3181 3184 3186 3187 3188 3187 3186 3186 3187 3189 3189 3190 3190 3190 3190 3190 3191 3191
Wind_Speed
14 14 14 15 16 17 18 19 18 18 17 16 15 14 13 13 13 13 13 13 13 13 13 13 13 12 12 12 12 12 11 11 12 12 12 13 13 13 13 13 14 14
15 15 14 15 16 17 18 19 19 19 19 18 17 16 16 15 15 14 14 14 14 14 14 14 13 13 13 13 13 13 12 12 12 12 12 12 12 12 12 12 13 13
16 16 15 15 16 17 18 19 20 20 20 19 19 18 18 17 16 15 15 15 15 15 15 15 14 14 14 13 13 13 13 12 12 12 12 12 12 12 12 12 12 12
14 15 16 16 17 17 18 19 20 21 21 20 20 20 19 19 17 16 16 16 15 16 16 15 15 14 14 14 14 14 14 13 13 12 12 12 12 12 12 12 13 13
14 15 16 17 18 18 18 19 19 20 21 21 21 21 20 19 18 17 16 16 16 16 16 15 15 15 15 15 14 14 14 14 13 12 12 12 12 12 12 12 13 13
16 15 16 16 18 19 19 19 19 19 20 21 21 20 20 19 18 17 17 16 16 16 16 16 15 15 15 15 15 15 14 14 13 13 12 13 13 13 12 12 12 13
17 17 17 16 18 19 20 19 19 19 19 20 20 20 20 19 18 18 17 17 17 17 16 16 15 15 15 15 15 15 15 15 14 13 13 13 14 13 13 13 13 13
18 19 19 18 18 19 20 20 19 19 20 20 20 20 20 19 19 18 18 18 17 17 17 16 16 16 16 16 16 15 15 15 15 14 14 14 15 14 14 14 14 13
19 20 20 20 20 20 20 20 20 20 20 20 20 20 20 20 19 19 19 19 18 18 18 17 17 17 17 17 16 16 16 16 16 15 15 15 15 15 15 15 14 14
21 21 21 22 22 21 21 21 21 21 21 21 21 21 21 21 21 20 20 20 19 19 18 18 18 18 18 17 17 17 17 16 16 16 16 16 16 16 16 16 15 15
22 22 22 22 22 22 22 21 22 23 23 23 23 23 23 22 22 22 21 21 20 20 19 19 19 18 18 18 17 17 17 17 17 17 17 17 17 17 16 16 15 15
24 24 23 23 23 23 23 23 23 23 24 24 24 24 24 24 24 23 22 22 21 21 20 20 19 19 18 18 18 18 18 18 17 16 17 17 17 16 16 16 15 15
24 24 24 24 24 24 24 25 24 25 25 25 25 25 25 25 25 24 23 23 22 21 21 20 19 19 18 18 18 18 18 17 17 16 16 16 16 16 16 15 15 15
25 25 25 26 26 26 26 26 26 26 26 26 26 26 26 26 26 25 24 24 23 22 21 21 20 20 19 18 18 18 17 17 17 17 16 16 16 16 16 16 15 15
29 27 26 26 27 28 28 28 28 28 28 28 28 27 27 26 26 26 25 25 24 23 23 22 22 21 20 19 18 18 18 18 18 18 17 17 17 17 17 17 16 16
31 28 26 27 28 29 30 30 30 30 30 30 30 29 29 28 28 28 27 27 26 25 25 24 23 22 20 20 20 19 19 19 19 19 19 18 18 18 18 18 18 17
35 31 29 29 29 30 31 32 32 32 32 32 31 31 31 30 30 29 29 28 28 27 26 26 25 23 22 22 21 21 21 21 20 20 20 20 20 19 19 19 19 19
38 34 30 31 33 33 32 33 35 34 32 32 31 32 32 32 31 31 29 29 29 28 27 27 25 24 24 24 23 23 22 22 22 22 22 22 22 21 21 21 21 21
37 35 33 33 35 35 33 33 36 36 34 32 31 31 32 32 32 32 31 30 30 29 29 28 27 26 25 25 25 24 24 24 24 24 24 24 24 23 23 23 23 23
36 37 38 37 35 34 33 33 34 35 35 33 31 31 31 32 32 32 32 32 31 31 31 30 29 28 27 27 26 26 25 25 25 26 26 25 24 24 25 25 25 25
39 39 40 38 36 36 36 33 31 33 35 34 32 32 32 31 32 32 32 32 32 33 33 33 33 32 30 29 28 27 27 27 27 27 26 26 25 26 26 26 26 26
39 41 42 40 38 38 37 34 32 33 35 35 35 34 33 33 32 32 31 32 32 33 33 33 33 34 33 32 30 29 29 28 28 28 27 26 27 27 27 27 27 27
36 38 41 41 40 39 37 35 35 35 35 37 37 35 34 33 32 31 32 33 32 32 32 32 32 34 35 34 32 30 29 29 28 28 28 27 27 27 27 28 28 28
26 28 32 35 37 38 37 36 36 34 35 38 37 33 31 32 31 30 32 33 33 32 32 32 32 34 35 35 32 29 29 29 28 28 29 29 29 29 30 30 30 30
13 17 21 24 27 31 33 34 34 33 33 34 32 28 27 30 30 30 30 31 31 31 31 32 32 33 34 34 32 28 27 28 29 30 31 31 32 32 32 33 33 33
9 12 17 20 23 26 28 29 30 30 31 33 31 29 29 31 32 31 31 31 30 31 30 29 29 31 32 34 33 30 28 29 30 31 33 33 34 35 35 36 36 36
Wind_Direction
210 208 206 205 202 198 196 196 196 196 197 198 200 202 204 206 205 202 201 202 201 201 204 208 210 210 212 217 222 223 225 229 233 235 236 237 239 241 244 247 249 250
215 213 209 209 208 207 204 202 201 200 201 201 202 204 206 208 208 206 206 206 207 208 209 211 215 215 217 221 226 227 229 232 233 234 238 241 243 244 246 250 253 254
219 219 216 214 212 211 212 210 208 206 205 205 205 206 207 208 208 208 209 210 211 214 215 216 217 218 221 224 227 230 231 233 234 234 237 242 245 246 249 252 254 256
221 221 220 219 216 214 215 216 215 212 210 208 208 209 210 211 211 209 211 212 213 216 219 219 219 221 225 227 229 230 231 233 234 234 237 242 247 250 252 255 257 259
227 224 222 220 220 219 217 218 219 218 215 212 211 212 213 214 213 211 211 213 214 217 219 219 220 222 225 229 231 232 233 236 237 237 239 243 247 250 253 255 257 258
230 229 226 223 222 224 222 219 219 221 220 219 217 216 216 216 214 212 212 214 215 218 220 220 222 224 226 228 230 232 235 238 242 243 243 244 247 249 252 255 255 256
231 232 232 229 226 227 227 224 222 222 221 222 223 222 220 217 215 213 214 215 218 221 222 223 224 226 228 229 230 233 236 239 243 246 245 246 248 251 253 255 254 255
231 231 232 233 232 230 230 228 228 226 224 224 225 227 226 223 220 217 217 218 221 223 225 227 228 229 231 233 233 236 239 241 244 245 244 245 248 252 255 256 256 256
234 232 231 232 233 232 231 230 230 230 229 228 228 229 230 230 228 225 223 224 226 227 229 230 231 233 235 236 236 238 239 242 244 244 245 245 247 251 254 256 256 255
233 233 232 233 234 234 233 231 230 231 231 232 232 232 233 233 234 233 231 231 232 233 233 233 234 234 236 237 237 238 239 241 243 245 245 246 248 250 253 256 256 256
230 233 233 233 234 235 235 233 231 230 231 233 233 234 235 235 235 235 235 234 235 237 237 237 236 235 236 237 238 239 239 241 243 245 246 247 248 249 251 254 255 255
227 229 232 234 235 235 235 235 234 232 231 232 234 234 235 236 235 234 234 234 235 237 238 239 238 237 237 238 239 240 240 242 243 245 247 248 249 250 251 253 254 254
232 230 230 231 233 235 235 234 234 233 232 232 233 234 234 235 235 233 232 233 233 234 237 238 238 239 240 241 241 242 243 244 245 246 247 249 249 251 252 253 254 254
239 236 234 232 231 232 233 233 232 232 231 232 232 233 234 233 233 232 231 231 231 232 233 235 236 237 240 243 245 246 247 248 248 248 248 248 249 252 253 254 255 254
241 237 234 235 235 233 231 231 231 231 230 230 231 233 233 233 232 232 231 231 230 231 232 233 235 236 239 243 244 246 248 250 250 251 250 250 251 252 255 256 257 258
243 238 235 237 238 237 234 231 230 230 230 229 230 232 233 233 232 231 231 232 232 232 233 233 234 235 238 241 242 244 247 249 251 253 253 254 254 254 256 258 260 261
241 237 232 233 237 238 237 236 232 229 230 229 229 231 233 234 235 234 233 234 235 235 236 236 236 235 237 238 239 241 245 248 251 253 254 255 255 256 257 259 261 263
242 240 233 230 232 232 233 237 238 233 230 230 230 232 234 236 238 239 239 238 238 238 238 238 238 238 239 240 241 242 244 247 250 251 252 253 255 255 256 257 259 261
245 244 241 236 235 231 228 233 240 238 233 231 231 233 235 236 239 241 242 243 242 242 242 242 241 241 242 244 245 245 246 247 249 249 249 250 252 254 255 256 257 259
247 243 243 242 241 239 232 229 235 241 239 233 230 231 234 237 239 240 242 243 245 246 245 245 244 242 243 246 248 248 248 249 250 251 252 253 254 256 258 259 260 260
249 245 244 243 240 241 238 230 229 238 242 238 233 230 230 232 235 237 240 241 243 245 246 247 247 245 243 244 246 248 248 249 251 253 255 255 256 257 259 261 262 263
253 249 247 243 237 237 238 233 229 232 238 239 236 233 230 229 229 231 235 238 241 243 245 247 249 249 247 244 242 244 247 249 250 253 254 254 254 256 258 261 262 263
248 249 247 243 237 235 235 234 233 233 234 236 235 233 234 233 230 227 229 234 237 239 242 245 248 250 250 245 240 237 241 246 248 250 253 254 255 256 258 260 262 264
235 241 243 240 235 234 234 235 236 235 234 234 233 231 233 237 237 231 230 233 235 235 236 237 242 246 247 246 244 237 235 241 247 250 253 255 256 258 259 261 262 264
239 239 241 237 231 229 231 235 238 240 237 235 235 234 236 242 243 239 237 239 241 241 237 233 237 243 244 247 250 245 238 240 245 249 253 256 258 260 261 262 263 263
256 247 243 240 235 230 227 227 234 241 239 236 238 240 241 244 245 242 241 241 243 247 246 240 239 241 243 247 253 252 246 245 247 250 253 255 258 260 261 261 262 263